Albany, NY
on Tuesday, December 12, 2017

Tuesday
       
Previous Day Next Day
Daily Summary
 ActualAverageRecord
Temperature
Mean Temperature °F °C 30°F -1°C  
Max Temperature 39°F 4°C 37°F 3°C 62°F 16°C (1979)
Min Temperature 22°F -6°C 23°F -5°C -12°F -24°C (1988)
Degree Days
Heating Degree Days 34 35  
Month to date heating degree days 375 397  
Since 1 July heating degree days 1489 1801  
Cooling Degree Days 0 0  
Month to date cooling degree days 0 0  
Year to date cooling degree days 714 598  
Moisture
Dew Point 26°F -3°C   
Average Humidity 71    
Maximum Humidity 92    
Minimum Humidity 50    
Precipitation
Precipitation 0.20 in / 5.08 cm 0.10 in / 2.54 cm 1.48 in / 3.76 cm (1967)
Month to date precipitation 0.83 1.25  
Year to date precipitation 39.06 37.67  
Snow
Snow 1.30 in / 3.30 cm 0.40 in / 1.02 cm 6.60 in / 16.76 cm (1970)
Month to date snowfall 4.7 4.3  
Since 1 July snowfall 4.7 7.4  
Snow Depth 2.00 in / 5.08 cm   
Wind
Wind Speed 11 mph / 18 km/h   
Max Wind Speed 30 mph / 48 km/h   
Max Gust Speed 41 mph / 66 km/h   
Visibility 4 miles / 7 kilometers   
Events Rain , Snow   

Key: T is trace of precipitation, MM is missing value
Source: NWS Daily Summary
Time(EST)TemperatureDew PointHumidity Pressure Visibility Wind DirectionWind SpeedGust SpeedPrecipitationEvents Conditions
12:51 AM 30.0°F -1.1°C 19.0°F -7.2°C 64% 29.89 in / 1012.1 hPa 10.0 miles / 16.1 kilometers Calm Calm - 0.00 in / 0.0 cm   Overcast
1:51 AM 30.0°F -1.1°C 21.0°F -6.1°C 69% 29.88 in / 1011.8 hPa 3.0 miles / 4.8 kilometers Variable 3.5 mph / 5.6 km/h - 0.00 in / 0.0 cm Snow Light Snow
2:19 AM 30.0°F -1.1°C 24.1°F -4.4°C 79% 29.85 in / 1010.7 hPa 5.0 miles / 8.0 kilometers SE 5.8 mph / 9.3 km/h - 0.00 in / 0.0 cm Snow Light Snow
2:51 AM 30.0°F -1.1°C 25.0°F -3.9°C 82% 29.84 in / 1010.3 hPa 8.0 miles / 12.9 kilometers SE 8.1 mph / 13.0 km/h - 0.00 in / 0.0 cm Snow Light Snow
3:51 AM 30.9°F -0.6°C 25.0°F -3.9°C 79% 29.80 in / 1009.1 hPa 2.0 miles / 3.2 kilometers SE 6.9 mph / 11.1 km/h - 0.00 in / 0.0 cm Snow Light Snow
3:55 AM 30.0°F -1.1°C 25.0°F -3.9°C 82% 29.79 in / 1008.7 hPa 1.0 miles / 1.6 kilometers SE 4.6 mph / 7.4 km/h - 0.00 in / 0.0 cm Snow Light Snow
4:03 AM 30.0°F -1.1°C 26.1°F -3.3°C 85% 29.78 in / 1008.4 hPa 2.0 miles / 3.2 kilometers SE 5.8 mph / 9.3 km/h - 0.01 in / 0.3 cm Snow Light Snow
4:51 AM 30.0°F -1.1°C 27.0°F -2.8°C 88% 29.76 in / 1007.6 hPa 4.0 miles / 6.4 kilometers SE 4.6 mph / 7.4 km/h - 0.02 in / 0.5 cm Snow Light Snow
5:17 AM 30.9°F -0.6°C 27.0°F -2.8°C 85% 29.72 in / 1006.3 hPa 2.0 miles / 3.2 kilometers ESE 3.5 mph / 5.6 km/h - 0.01 in / 0.3 cm Snow Light Snow
5:20 AM 30.9°F -0.6°C 27.0°F -2.8°C 85% 29.72 in / 1006.3 hPa 4.0 miles / 6.4 kilometers Variable 3.5 mph / 5.6 km/h - 0.01 in / 0.3 cm Snow Light Snow
5:51 AM 32.0°F 0.0°C 27.0°F -2.8°C 82% 29.70 in / 1005.8 hPa 1.5 miles / 2.4 kilometers SSE 6.9 mph / 11.1 km/h - 0.01 in / 0.3 cm Snow Light Snow
5:57 AM 32.0°F 0.0°C 27.0°F -2.8°C 82% 29.69 in / 1005.3 hPa 2.0 miles / 3.2 kilometers SSE 5.8 mph / 9.3 km/h - 0.00 in / 0.0 cm Snow Light Snow
6:01 AM 32.0°F 0.0°C 28.0°F -2.2°C 85% 29.69 in / 1005.3 hPa 3.0 miles / 4.8 kilometers SSE 5.8 mph / 9.3 km/h - 0.00 in / 0.0 cm Snow Light Snow
6:07 AM 32.0°F 0.0°C 28.0°F -2.2°C 85% 29.68 in / 1005.0 hPa 1.5 miles / 2.4 kilometers SSE 6.9 mph / 11.1 km/h - 0.00 in / 0.0 cm Snow Light Snow
6:12 AM 32.0°F 0.0°C 28.0°F -2.2°C 85% 29.68 in / 1005.0 hPa 2.0 miles / 3.2 kilometers South 8.1 mph / 13.0 km/h - 0.00 in / 0.0 cm Snow Light Snow
6:30 AM 30.9°F -0.6°C 28.0°F -2.2°C 89% 29.67 in / 1004.6 hPa 2.0 miles / 3.2 kilometers South 5.8 mph / 9.3 km/h - 0.00 in / 0.0 cm Snow Light Snow
6:40 AM 30.9°F -0.6°C 28.0°F -2.2°C 89% 29.66 in / 1004.3 hPa 2.0 miles / 3.2 kilometers South 6.9 mph / 11.1 km/h - 0.00 in / 0.0 cm Snow Light Snow
6:51 AM 30.0°F -1.1°C 27.0°F -2.8°C 88% 29.67 in / 1004.7 hPa 2.0 miles / 3.2 kilometers SSW 6.9 mph / 11.1 km/h - 0.01 in / 0.3 cm Snow Light Snow
7:51 AM 30.9°F -0.6°C 28.0°F -2.2°C 89% 29.65 in / 1003.9 hPa 1.8 miles / 2.8 kilometers South 4.6 mph / 7.4 km/h - 0.01 in / 0.3 cm Snow Light Snow
8:51 AM 32.0°F 0.0°C 28.9°F -1.7°C 88% 29.61 in / 1002.7 hPa 1.0 miles / 1.6 kilometers South 6.9 mph / 11.1 km/h - 0.01 in / 0.3 cm Snow Light Snow
9:02 AM 32.0°F 0.0°C 30.0°F -1.1°C 92% 29.59 in / 1001.9 hPa 0.8 miles / 1.2 kilometers SSE 8.1 mph / 13.0 km/h - 0.00 in / 0.0 cm Snow Light Snow
9:14 AM 33.1°F 0.6°C 30.0°F -1.1°C 89% 29.59 in / 1001.9 hPa 1.0 miles / 1.6 kilometers South 8.1 mph / 13.0 km/h - 0.01 in / 0.3 cm Snow Light Snow
9:51 AM 33.1°F 0.6°C 30.9°F -0.6°C 92% 29.58 in / 1001.5 hPa 1.0 miles / 1.6 kilometers South 10.4 mph / 16.7 km/h - 0.01 in / 0.3 cm Snow Light Snow
10:51 AM 34.0°F 1.1°C 30.9°F -0.6°C 89% 29.55 in / 1000.5 hPa 2.5 miles / 4.0 kilometers South 10.4 mph / 16.7 km/h - 0.01 in / 0.3 cm Rain , Snow Light Rain
11:03 AM 34.0°F 1.1°C 30.9°F -0.6°C 89% 29.53 in / 999.9 hPa 2.5 miles / 4.0 kilometers South 11.5 mph / 18.5 km/h - 0.00 in / 0.0 cm Rain , Snow Light Rain
11:22 AM 34.0°F 1.1°C 32.0°F 0.0°C 92% 29.52 in / 999.5 hPa 4.0 miles / 6.4 kilometers South 10.4 mph / 16.7 km/h - 0.00 in / 0.0 cm Rain , Snow Light Rain
11:48 AM 35.6°F 2.0°C 32.0°F 0.0°C 87% 29.50 in / 998.9 hPa 5.0 miles / 8.0 kilometers South 8.1 mph / 13.0 km/h - 0.00 in / 0.0 cm Rain Light Rain
11:51 AM 35.1°F 1.7°C 32.0°F 0.0°C 89% 29.50 in / 999.0 hPa 5.0 miles / 8.0 kilometers South 6.9 mph / 11.1 km/h - 0.00 in / 0.0 cm Rain Light Rain
12:12 PM 35.1°F 1.7°C 33.1°F 0.6°C 92% 29.47 in / 997.9 hPa 6.0 miles / 9.7 kilometers South 8.1 mph / 13.0 km/h - 0.00 in / 0.0 cm Rain Light Rain
12:51 PM 35.1°F 1.7°C 32.0°F 0.0°C 89% 29.47 in / 997.8 hPa 5.0 miles / 8.0 kilometers SW 5.8 mph / 9.3 km/h - 0.00 in / 0.0 cm   Overcast
1:26 PM 35.1°F 1.7°C 33.1°F 0.6°C 92% 29.44 in / 996.8 hPa 3.0 miles / 4.8 kilometers South 3.5 mph / 5.6 km/h - 0.01 in / 0.3 cm Rain Light Rain
1:51 PM 35.1°F 1.7°C 33.1°F 0.6°C 92% 29.44 in / 996.9 hPa 3.0 miles / 4.8 kilometers Calm Calm - 0.01 in / 0.3 cm Rain Light Rain
2:06 PM 35.1°F 1.7°C 33.1°F 0.6°C 92% 29.43 in / 996.5 hPa 2.0 miles / 3.2 kilometers Calm Calm - 0.00 in / 0.0 cm Rain Light Rain
2:51 PM 36.0°F 2.2°C 34.0°F 1.1°C 93% 29.43 in / 996.5 hPa 2.0 miles / 3.2 kilometers SSW 3.5 mph / 5.6 km/h - 0.04 in / 1.0 cm Rain Light Rain
2:58 PM 35.1°F 1.7°C 33.1°F 0.6°C 92% 29.42 in / 996.2 hPa 1.2 miles / 2.0 kilometers SSW 4.6 mph / 7.4 km/h - 0.00 in / 0.0 cm Rain Light Rain
3:47 PM 35.6°F 2.0°C 33.8°F 1.0°C 93% 29.41 in / 995.8 hPa 1.2 miles / 2.0 kilometers SW 4.6 mph / 7.4 km/h - 0.03 in / 0.8 cm Rain Light Rain
3:51 PM 36.0°F 2.2°C 33.1°F 0.6°C 89% 29.42 in / 996.3 hPa 1.2 miles / 2.0 kilometers South 6.9 mph / 11.1 km/h - 0.04 in / 1.0 cm Rain Light Rain
4:51 PM 35.1°F 1.7°C 30.0°F -1.1°C 82% 29.44 in / 996.7 hPa 4.0 miles / 6.4 kilometers WNW 15.0 mph / 24.1 km/h - 0.03 in / 0.8 cm Snow Light Snow
5:40 PM 33.1°F 0.6°C 26.1°F -3.3°C 75% 29.44 in / 996.8 hPa 10.0 miles / 16.1 kilometers WNW 21.9 mph / 35.2 km/h 33.4 mph / 53.7 km/h 0.00 in / 0.0 cm Snow Light Snow
5:51 PM 32.0°F 0.0°C 25.0°F -3.9°C 75% 29.46 in / 997.5 hPa 9.0 miles / 14.5 kilometers WNW 26.5 mph / 42.6 km/h 31.1 mph / 50.0 km/h 0.00 in / 0.0 cm Snow Light Snow
6:51 PM 30.0°F -1.1°C 19.9°F -6.7°C 66% 29.47 in / 997.9 hPa 10.0 miles / 16.1 kilometers WNW 19.6 mph / 31.5 km/h 27.6 mph / 44.4 km/h 0.00 in / 0.0 cm   Overcast
7:51 PM 28.9°F -1.7°C 17.1°F -8.3°C 61% 29.48 in / 998.2 hPa 10.0 miles / 16.1 kilometers WNW 20.7 mph / 33.3 km/h 32.2 mph / 51.9 km/h N/A   Overcast
8:51 PM 28.0°F -2.2°C 15.1°F -9.4°C 58% 29.49 in / 998.4 hPa 10.0 miles / 16.1 kilometers WNW 18.4 mph / 29.6 km/h 31.1 mph / 50.0 km/h N/A   Overcast
9:51 PM 26.1°F -3.3°C 12.0°F -11.1°C 55% 29.48 in / 998.2 hPa 10.0 miles / 16.1 kilometers WNW 28.8 mph / 46.3 km/h 40.3 mph / 64.8 km/h N/A   Overcast
10:51 PM 24.1°F -4.4°C 9.0°F -12.8°C 53% 29.48 in / 998.3 hPa 10.0 miles / 16.1 kilometers WNW 21.9 mph / 35.2 km/h 31.1 mph / 50.0 km/h N/A   Overcast
11:51 PM 21.9°F -5.6°C 3.0°F -16.1°C 44% 29.47 in / 997.7 hPa 10.0 miles / 16.1 kilometers WNW 25.3 mph / 40.7 km/h 39.1 mph / 63.0 km/h N/A   Overcast